Weather History for KDHT - February, 2013

Change the Weather History Date:

Saturday, February 23, 2013

  Actual Average Record
Temperature  
Mean Temperature 42 °F 40 °F  
Max Temperature 53 °F 55 °F 81 °F (1956)
Min Temperature 30 °F 24 °F 3 °F (2010)
Degree Days  
Heating Degree Days 23 25  
Month to date heating degree days 613 637  
Since 1 July heating degree days 3179 3519  
Cooling Degree Days 0 0  
Month to date cooling degree days 0 0  
Year to date cooling degree days 0 0  
Moisture  
Dew Point 26 °F    
Average Humidity 55    
Maximum Humidity 85    
Minimum Humidity 24    
Precipitation  
Precipitation 0.00 in 0.01 in 0.10 in (1951)
Month to date precipitation 0.58 0.32  
Year to date precipitation 0.75 0.84  
Snow  
Snow 0.00 in 0.10 in 0.90 in (1964)
Month to date snowfall 12.5 2.6  
Since 1 July snowfall 17.0 13.1  
Snow Depth T in    
Sea Level Pressure  
Sea Level Pressure 29.83 in    
Wind  
Wind Speed 9 mph (South)    
Max Wind Speed 16 mph    
Max Gust Speed 21 mph    
Visibility 8 miles    
Events      
T = Trace of Precipitation, MM = Missing Value Source: NWS Daily Summary

Daily Weather History Graph

Daily Weather History Graph

Search for Another Location

Airport or City:

Trip Planner

Search our weather history database for the weather conditions in past years. The results will help you decide how hot, cold, wet, or windy it might be!

Date:

Astronomy

Feb. 23, 2013 Rise Set
Actual Time 7:27 AM CST 6:39 PM CST
Civil Twilight 7:01 AM CST 7:05 PM CST
Nautical Twilight 6:32 AM CST 7:35 PM CST
Astronomical Twilight 6:02 AM CST 8:05 PM CST
Moon 4:54 PM CST (2/23) 5:49 AM CST (2/23)
Length of Visible Light 12h 03m
Length of Day
11h 12m
Waxing Gibbous, 95% of the Moon is Illuminated
Feb 23
Waxing Gibbous
Feb 25
Full
Mar 4
Last Quarter
Mar 11
New
Mar 19
First Quarter

Hourly Weather History & Observations

Time (CST) Temp. Windchill Dew Point Humidity Pressure Visibility Wind Dir Wind Speed Gust Speed Precip Events Conditions
12:53 AM 30.9 °F - 26.1 °F 82% 30.01 in 7.0 mi Calm Calm - N/A   Overcast
1:53 AM 32.0 °F 25.6 °F 27.0 °F 82% 29.99 in 7.0 mi SE 6.9 mph - N/A   Overcast
2:53 AM 32.0 °F 23.6 °F 26.1 °F 79% 29.96 in 7.0 mi SSE 10.4 mph - N/A   Overcast
3:45 AM 30.2 °F 21.9 °F 26.6 °F 86% 29.92 in 8.0 mi South 9.2 mph - N/A   Overcast
3:53 AM 30.9 °F 26.2 °F 26.1 °F 82% 29.94 in 8.0 mi South 4.6 mph - N/A   Overcast
4:53 AM 30.9 °F 23.5 °F 26.1 °F 82% 29.91 in 8.0 mi South 8.1 mph - N/A   Overcast
5:53 AM 30.0 °F 21.7 °F 25.0 °F 82% 29.92 in 8.0 mi South 9.2 mph - N/A   Overcast
6:29 AM 30.2 °F 23.4 °F 26.6 °F 86% 29.90 in 8.0 mi SSW 6.9 mph - N/A   Overcast
6:53 AM 30.0 °F 24.1 °F 26.1 °F 85% 29.91 in 8.0 mi SSW 5.8 mph - N/A   Overcast
7:00 AM 30.2 °F 24.3 °F 26.6 °F 86% 29.88 in 8.0 mi SSW 5.8 mph - N/A   Overcast
7:53 AM 30.9 °F 26.2 °F 27.0 °F 85% 29.91 in 5.0 mi South 4.6 mph - N/A   Overcast
8:01 AM 30.2 °F 24.3 °F 26.6 °F 86% 29.88 in 5.0 mi South 5.8 mph - N/A   Overcast
8:53 AM 32.0 °F 27.5 °F 26.1 °F 79% 29.92 in 5.0 mi SW 4.6 mph - N/A   Haze
9:12 AM 33.8 °F 29.6 °F 26.6 °F 75% 29.88 in 5.0 mi SSW 4.6 mph - N/A   Haze
9:53 AM 34.0 °F 28.8 °F 27.0 °F 75% 29.90 in 6.0 mi SSW 5.8 mph - N/A   Haze
10:53 AM 37.0 °F 29.8 °F 28.9 °F 73% 29.89 in 8.0 mi SW 10.4 mph - N/A   Partly Cloudy
11:53 AM 39.0 °F 32.3 °F 30.0 °F 70% 29.87 in 9.0 mi WSW 10.4 mph - N/A   Clear
12:53 PM 45.0 °F 39.3 °F 30.9 °F 58% 29.82 in 10.0 mi SW 11.5 mph - N/A   Clear
1:53 PM 46.0 °F 41.0 °F 30.9 °F 56% 29.79 in 10.0 mi West 10.4 mph - N/A   Clear
2:53 PM 50.0 °F - 28.0 °F 43% 29.73 in 10.0 mi SW 8.1 mph - N/A   Clear
3:53 PM 52.0 °F - 21.9 °F 31% 29.70 in 10.0 mi South 11.5 mph - N/A   Clear
4:53 PM 53.1 °F - 18.0 °F 25% 29.68 in 10.0 mi South 12.7 mph - N/A   Clear
5:53 PM 52.0 °F - 19.0 °F 27% 29.69 in 10.0 mi South 10.4 mph - N/A   Clear
6:53 PM 43.0 °F 36.8 °F 26.1 °F 51% 29.68 in 10.0 mi SE 11.5 mph - N/A   Clear
7:53 PM 42.1 °F 35.7 °F 27.0 °F 55% 29.68 in 10.0 mi ESE 11.5 mph - N/A   Clear
8:53 PM 39.2 °F 31.2 °F 26.6 °F 61% 29.68 in 10.0 mi SE 13.8 mph - N/A   Clear
9:53 PM 37.4 °F 28.5 °F 26.6 °F 65% 29.68 in 10.0 mi South 15.0 mph - N/A   Clear
10:53 PM 39.9 °F 32.5 °F 23.0 °F 51% 29.67 in 10.0 mi South 12.7 mph - N/A   Clear
11:53 PM 37.0 °F 29.8 °F 21.9 °F 54% 29.67 in 10.0 mi South 10.4 mph - N/A   Clear